Data supplied by UK-AIR on 9/5/2019
All Data GMT hour ending 
Status: R =Ratified P=Provisional,P*=As supplied
,,Ballymena Ballykeel,,,,,,,,,,,,,,,,,,,,,,,
Date,time,"Nitric oxide",status,unit,"Nitrogen dioxide",status,unit,"Nitrogen oxides as nitrogen dioxide",status,unit,"Sulphur dioxide",status,unit,"Black carbon",status,unit,"UV Particulate Matter",status,unit
 
01-01-2018,01:00,3.12198,R,ugm-3,12.39253,R,ugm-3,17.17950,R,ugm-3,,,,0.40,R,ugm-3,1.30,R,ugm-3
01-01-2018,02:00,2.74460,R,ugm-3,12.34311,R,ugm-3,16.55143,R,ugm-3,,,,0.20,R,ugm-3,0.60,R,ugm-3
01-01-2018,03:00,2.88183,R,ugm-3,11.76324,R,ugm-3,16.18198,R,ugm-3,,,,0.20,R,ugm-3,0.20,R,ugm-3
01-01-2018,04:00,3.32783,R,ugm-3,11.85523,R,ugm-3,16.95783,R,ugm-3,,,,0.20,R,ugm-3,0.20,R,ugm-3
01-01-2018,05:00,3.32783,R,ugm-3,11.13480,R,ugm-3,16.23740,R,ugm-3,,,,0.10,R,ugm-3,0.10,R,ugm-3
01-01-2018,06:00,3.56798,R,ugm-3,11.54242,R,ugm-3,17.01324,R,ugm-3,,,,0.10,R,ugm-3,0.10,R,ugm-3
01-01-2018,07:00,4.08259,R,ugm-3,12.63756,R,ugm-3,18.89745,R,ugm-3,,,,0.10,R,ugm-3,0.40,R,ugm-3
01-01-2018,08:00,3.97967,R,ugm-3,13.29414,R,ugm-3,19.39621,R,ugm-3,,,,0.20,R,ugm-3,0.30,R,ugm-3
01-01-2018,09:00,3.91105,R,ugm-3,11.90307,R,ugm-3,17.89993,R,ugm-3,,,,0.10,R,ugm-3,0.10,R,ugm-3
01-01-2018,10:00,4.45997,R,ugm-3,12.16975,R,ugm-3,19.00828,R,ugm-3,,,,0.50,R,ugm-3,3.00,R,ugm-3
01-01-2018,11:00,3.91105,R,ugm-3,13.23309,R,ugm-3,19.22995,R,ugm-3,,,,0.40,R,ugm-3,0.60,R,ugm-3
01-01-2018,12:00,2.57306,R,ugm-3,14.67505,R,ugm-3,18.62036,R,ugm-3,,,,1.40,R,ugm-3,1.60,R,ugm-3
01-01-2018,13:00,1.33799,R,ugm-3,10.41743,R,ugm-3,12.46899,R,ugm-3,,,,0.50,R,ugm-3,0.80,R,ugm-3
01-01-2018,14:00,1.57814,R,ugm-3,9.71670,R,ugm-3,12.13648,R,ugm-3,,,,1.10,R,ugm-3,1.00,R,ugm-3
01-01-2018,15:00,1.68107,R,ugm-3,10.66724,R,ugm-3,13.24484,R,ugm-3,,,,0.80,R,ugm-3,0.50,R,ugm-3
01-01-2018,16:00,1.71537,R,ugm-3,10.78089,R,ugm-3,13.41109,R,ugm-3,,,,0.50,R,ugm-3,0.50,R,ugm-3
01-01-2018,17:00,2.26429,R,ugm-3,17.97479,R,ugm-3,21.44666,R,ugm-3,,,,2.10,R,ugm-3,2.70,R,ugm-3
01-01-2018,18:00,3.05337,R,ugm-3,21.19832,R,ugm-3,25.88008,R,ugm-3,,,,1.40,R,ugm-3,1.40,R,ugm-3
01-01-2018,19:00,3.70521,R,ugm-3,20.30968,R,ugm-3,25.99092,R,ugm-3,,,,1.00,R,ugm-3,0.90,R,ugm-3
01-01-2018,20:00,5.28335,R,ugm-3,24.59544,R,ugm-3,32.69646,R,ugm-3,,,,3.90,R,ugm-3,7.00,R,ugm-3
01-01-2018,21:00,5.11181,R,ugm-3,25.41263,R,ugm-3,33.25064,R,ugm-3,,,,5.80,R,ugm-3,4.10,R,ugm-3
01-01-2018,22:00,3.43075,R,ugm-3,19.01256,R,ugm-3,24.27297,R,ugm-3,,,,1.60,R,ugm-3,3.10,R,ugm-3
01-01-2018,23:00,3.46506,R,ugm-3,18.73829,R,ugm-3,24.05130,R,ugm-3,,,,0.90,R,ugm-3,0.90,R,ugm-3
01-01-2018,24:00,3.80813,R,ugm-3,19.43144,R,ugm-3,25.27049,R,ugm-3,,,,0.80,R,ugm-3,0.50,R,ugm-3
02-01-2018,01:00,3.02051,R,ugm-3,12.26912,R,ugm-3,16.90051,R,ugm-3,,,,0.30,R,ugm-3,0.30,R,ugm-3
02-01-2018,02:00,2.92898,R,ugm-3,11.89285,R,ugm-3,16.38390,R,ugm-3,,,,0.30,R,ugm-3,0.10,R,ugm-3
02-01-2018,03:00,3.43240,R,ugm-3,12.06192,R,ugm-3,17.32487,R,ugm-3,,,,0.30,R,ugm-3,0.20,R,ugm-3
02-01-2018,04:00,3.74132,R,ugm-3,11.09010,R,ugm-3,16.82671,R,ugm-3,,,,0.30,R,ugm-3,0.10,R,ugm-3
02-01-2018,05:00,3.80997,R,ugm-3,12.03651,R,ugm-3,17.87838,R,ugm-3,,,,0.20,R,ugm-3,0.20,R,ugm-3
02-01-2018,06:00,3.74132,R,ugm-3,13.35949,R,ugm-3,19.09610,R,ugm-3,,,,0.20,R,ugm-3,0.10,R,ugm-3
02-01-2018,07:00,5.49184,R,ugm-3,21.69024,R,ugm-3,30.11095,R,ugm-3,,,,0.50,R,ugm-3,0.20,R,ugm-3
02-01-2018,08:00,4.63374,R,ugm-3,20.45983,R,ugm-3,27.56480,R,ugm-3,,,,0.30,R,ugm-3,0.10,R,ugm-3
02-01-2018,09:00,6.96778,R,ugm-3,24.85157,R,ugm-3,35.53535,R,ugm-3,,,,0.30,R,ugm-3,0.00,R,ugm-3
02-01-2018,10:00,3.63835,R,ugm-3,18.44362,R,ugm-3,24.02234,R,ugm-3,,,,0.30,R,ugm-3,0.60,R,ugm-3
02-01-2018,11:00,4.22186,R,ugm-3,19.32015,R,ugm-3,25.79357,R,ugm-3,,,,0.60,R,ugm-3,0.80,R,ugm-3
02-01-2018,12:00,5.28590,R,ugm-3,20.06873,R,ugm-3,28.17366,R,ugm-3,,,,1.30,R,ugm-3,1.10,R,ugm-3
02-01-2018,13:00,3.04903,R,ugm-3,15.47265,R,ugm-3,20.14777,R,ugm-3,,,,0.60,R,ugm-3,0.70,R,ugm-3
02-01-2018,14:00,,,,,,,,,,,,,0.50,R,ugm-3,0.60,R,ugm-3
02-01-2018,15:00,6.47035,R,ugm-3,36.46308,R,ugm-3,46.38414,R,ugm-3,,,,1.10,R,ugm-3,2.20,R,ugm-3
02-01-2018,16:00,7.08657,R,ugm-3,35.46286,R,ugm-3,46.32879,R,ugm-3,,,,1.50,R,ugm-3,0.70,R,ugm-3
02-01-2018,17:00,6.98387,R,ugm-3,33.79376,R,ugm-3,44.50221,R,ugm-3,,,,1.20,R,ugm-3,0.60,R,ugm-3
02-01-2018,18:00,8.49020,R,ugm-3,34.14094,R,ugm-3,47.15906,R,ugm-3,,,,1.00,R,ugm-3,0.60,R,ugm-3
02-01-2018,19:00,8.14785,R,ugm-3,28.07909,R,ugm-3,40.57229,R,ugm-3,,,,0.80,R,ugm-3,0.20,R,ugm-3
02-01-2018,20:00,4.14239,R,ugm-3,17.89216,R,ugm-3,24.24374,R,ugm-3,,,,0.50,R,ugm-3,0.30,R,ugm-3
02-01-2018,21:00,3.62887,R,ugm-3,17.40647,R,ugm-3,22.97067,R,ugm-3,,,,1.00,R,ugm-3,1.30,R,ugm-3
02-01-2018,22:00,1.50633,R,ugm-3,11.02993,R,ugm-3,13.33959,R,ugm-3,,,,0.30,R,ugm-3,0.40,R,ugm-3
02-01-2018,23:00,1.81444,R,ugm-3,12.32873,R,ugm-3,15.11083,R,ugm-3,,,,0.30,R,ugm-3,0.20,R,ugm-3
02-01-2018,24:00,1.06127,R,ugm-3,9.27688,R,ugm-3,10.90415,R,ugm-3,,,,0.10,R,ugm-3,0.20,R,ugm-3
03-01-2018,01:00,1.37362,R,ugm-3,9.63435,R,ugm-3,11.74054,R,ugm-3,,,,0.10,R,ugm-3,0.00,R,ugm-3
03-01-2018,02:00,1.32784,R,ugm-3,9.48303,R,ugm-3,11.51902,R,ugm-3,,,,0.10,R,ugm-3,0.00,R,ugm-3
03-01-2018,03:00,1.82005,R,ugm-3,10.00205,R,ugm-3,12.79276,R,ugm-3,,,,0.10,R,ugm-3,-0.10,R,ugm-3
03-01-2018,04:00,1.85439,R,ugm-3,9.78326,R,ugm-3,12.62662,R,ugm-3,,,,0.00,R,ugm-3,0.00,R,ugm-3
03-01-2018,05:00,1.16758,R,ugm-3,8.17812,R,ugm-3,9.96838,R,ugm-3,,,,0.00,R,ugm-3,0.00,R,ugm-3
03-01-2018,06:00,1.82005,R,ugm-3,10.27895,R,ugm-3,13.06965,R,ugm-3,,,,0.00,R,ugm-3,0.00,R,ugm-3
03-01-2018,07:00,2.74725,R,ugm-3,13.06614,R,ugm-3,17.27853,R,ugm-3,,,,0.10,R,ugm-3,0.10,R,ugm-3
03-01-2018,08:00,2.43818,R,ugm-3,14.03845,R,ugm-3,17.77695,R,ugm-3,,,,0.20,R,ugm-3,0.00,R,ugm-3
03-01-2018,09:00,1.92307,R,ugm-3,13.66530,R,ugm-3,16.61397,R,ugm-3,,,,0.20,R,ugm-3,0.10,R,ugm-3
03-01-2018,10:00,1.61401,R,ugm-3,13.03159,R,ugm-3,15.50637,R,ugm-3,,,,0.40,R,ugm-3,0.40,R,ugm-3
03-01-2018,11:00,2.74725,R,ugm-3,16.83197,R,ugm-3,21.04436,R,ugm-3,,,,1.30,R,ugm-3,1.50,R,ugm-3
03-01-2018,12:00,3.09065,R,ugm-3,18.96366,R,ugm-3,23.70259,R,ugm-3,,,,0.70,R,ugm-3,0.90,R,ugm-3
03-01-2018,13:00,3.91483,R,ugm-3,21.07812,R,ugm-3,27.08077,R,ugm-3,,,,0.70,R,ugm-3,0.90,R,ugm-3
03-01-2018,14:00,4.18955,R,ugm-3,20.37998,R,ugm-3,26.80387,R,ugm-3,,,,0.90,R,ugm-3,1.00,R,ugm-3
03-01-2018,15:00,2.91895,R,ugm-3,16.90098,R,ugm-3,21.37664,R,ugm-3,,,,0.50,R,ugm-3,0.90,R,ugm-3
03-01-2018,16:00,2.54120,R,ugm-3,15.98493,R,ugm-3,19.88138,R,ugm-3,,,,0.90,R,ugm-3,1.30,R,ugm-3
03-01-2018,17:00,1.44230,R,ugm-3,12.18727,R,ugm-3,14.39877,R,ugm-3,,,,0.80,R,ugm-3,1.10,R,ugm-3
03-01-2018,18:00,1.33928,R,ugm-3,13.50821,R,ugm-3,15.56175,R,ugm-3,,,,1.00,R,ugm-3,1.30,R,ugm-3
03-01-2018,19:00,1.44230,R,ugm-3,14.51322,R,ugm-3,16.72473,R,ugm-3,,,,1.20,R,ugm-3,1.50,R,ugm-3
03-01-2018,20:00,1.61401,R,ugm-3,14.85913,R,ugm-3,17.33391,R,ugm-3,,,,1.00,R,ugm-3,1.10,R,ugm-3
03-01-2018,21:00,1.78571,R,ugm-3,15.53731,R,ugm-3,18.27536,R,ugm-3,,,,1.00,R,ugm-3,2.70,R,ugm-3
03-01-2018,22:00,4.84202,R,ugm-3,28.51722,R,ugm-3,35.94155,R,ugm-3,,,,1.40,R,ugm-3,1.30,R,ugm-3
03-01-2018,23:00,4.49862,R,ugm-3,18.96463,R,ugm-3,25.86241,R,ugm-3,,,,0.50,R,ugm-3,0.20,R,ugm-3
03-01-2018,24:00,3.88049,R,ugm-3,14.31905,R,ugm-3,20.26904,R,ugm-3,,,,0.40,R,ugm-3,0.40,R,ugm-3
04-01-2018,01:00,3.06924,R,ugm-3,13.98513,R,ugm-3,18.69123,R,ugm-3,,,,1.80,R,ugm-3,1.70,R,ugm-3
04-01-2018,02:00,3.61895,R,ugm-3,11.36917,R,ugm-3,16.91815,R,ugm-3,,,,0.20,R,ugm-3,0.10,R,ugm-3
04-01-2018,03:00,4.36336,R,ugm-3,13.81086,R,ugm-3,20.50125,R,ugm-3,,,,0.20,R,ugm-3,0.10,R,ugm-3
04-01-2018,04:00,4.15721,R,ugm-3,11.57814,R,ugm-3,17.95244,R,ugm-3,,,,0.10,R,ugm-3,0.10,R,ugm-3
04-01-2018,05:00,3.98543,R,ugm-3,11.78613,R,ugm-3,17.89704,R,ugm-3,,,,0.20,R,ugm-3,0.00,R,ugm-3
04-01-2018,06:00,4.15721,R,ugm-3,13.90531,R,ugm-3,20.27961,R,ugm-3,,,,0.20,R,ugm-3,0.00,R,ugm-3
04-01-2018,07:00,6.45914,R,ugm-3,25.77938,R,ugm-3,35.68325,R,ugm-3,,,,0.60,R,ugm-3,3.20,R,ugm-3
04-01-2018,08:00,16.76628,R,ugm-3,49.26014,R,ugm-3,74.96808,R,ugm-3,,,,1.10,R,ugm-3,0.50,R,ugm-3
04-01-2018,09:00,16.83499,R,ugm-3,55.24975,R,ugm-3,81.06304,R,ugm-3,,,,0.90,R,ugm-3,0.00,R,ugm-3
04-01-2018,10:00,15.46071,R,ugm-3,50.04300,R,ugm-3,73.74909,R,ugm-3,,,,0.80,R,ugm-3,0.10,R,ugm-3
04-01-2018,11:00,5.18793,R,ugm-3,23.73911,R,ugm-3,31.69382,R,ugm-3,,,,0.40,R,ugm-3,0.00,R,ugm-3
04-01-2018,12:00,2.09579,R,ugm-3,14.84977,R,ugm-3,18.06326,R,ugm-3,,,,0.50,R,ugm-3,0.00,R,ugm-3
04-01-2018,13:00,3.67621,R,ugm-3,16.63755,R,ugm-3,22.27433,R,ugm-3,,,,0.60,R,ugm-3,0.80,R,ugm-3
04-01-2018,14:00,4.26028,R,ugm-3,22.50186,R,ugm-3,29.03420,R,ugm-3,,,,0.60,R,ugm-3,0.70,R,ugm-3
04-01-2018,15:00,7.86778,R,ugm-3,35.53238,R,ugm-3,47.59614,R,ugm-3,,,,2.90,R,ugm-3,2.60,R,ugm-3
04-01-2018,16:00,5.49714,R,ugm-3,28.86128,R,ugm-3,37.29011,R,ugm-3,,,,1.80,R,ugm-3,1.40,R,ugm-3
04-01-2018,17:00,7.69600,R,ugm-3,34.24433,R,ugm-3,46.04470,R,ugm-3,,,,2.60,R,ugm-3,2.90,R,ugm-3
04-01-2018,18:00,7.59293,R,ugm-3,43.32319,R,ugm-3,54.96551,R,ugm-3,,,,4.10,R,ugm-3,7.80,R,ugm-3
04-01-2018,19:00,26.72985,R,ugm-3,59.58174,R,ugm-3,100.56693,R,ugm-3,,,,4.70,R,ugm-3,6.50,R,ugm-3
04-01-2018,20:00,10.16971,R,ugm-3,40.75739,R,ugm-3,56.35073,R,ugm-3,,,,2.10,R,ugm-3,2.60,R,ugm-3
04-01-2018,21:00,6.42478,R,ugm-3,26.21992,R,ugm-3,36.07112,R,ugm-3,,,,1.30,R,ugm-3,1.30,R,ugm-3
04-01-2018,22:00,5.11921,R,ugm-3,21.35108,R,ugm-3,29.20043,R,ugm-3,,,,1.40,R,ugm-3,1.40,R,ugm-3
04-01-2018,23:00,5.87507,R,ugm-3,23.51664,R,ugm-3,32.52495,R,ugm-3,,,,1.00,R,ugm-3,0.60,R,ugm-3
04-01-2018,24:00,5.60021,R,ugm-3,19.61620,R,ugm-3,28.20307,R,ugm-3,,,,0.90,R,ugm-3,0.50,R,ugm-3
05-01-2018,01:00,5.82061,R,ugm-3,18.27660,R,ugm-3,27.20142,R,ugm-3,,,,0.70,R,ugm-3,0.50,R,ugm-3
05-01-2018,02:00,4.39983,R,ugm-3,12.54599,R,ugm-3,19.29231,R,ugm-3,,,,0.40,R,ugm-3,0.30,R,ugm-3
05-01-2018,03:00,4.22796,R,ugm-3,12.75408,R,ugm-3,19.23687,R,ugm-3,,,,0.60,R,ugm-3,0.40,R,ugm-3
05-01-2018,04:00,4.50295,R,ugm-3,12.94225,R,ugm-3,19.84668,R,ugm-3,,,,0.50,R,ugm-3,0.40,R,ugm-3
05-01-2018,05:00,4.81232,R,ugm-3,13.68753,R,ugm-3,21.06631,R,ugm-3,,,,0.50,R,ugm-3,0.50,R,ugm-3
05-01-2018,06:00,6.42788,R,ugm-3,18.30639,R,ugm-3,28.16233,R,ugm-3,,,,0.90,R,ugm-3,1.30,R,ugm-3
05-01-2018,07:00,9.65901,R,ugm-3,28.81918,R,ugm-3,43.62944,R,ugm-3,,,,0.80,R,ugm-3,1.00,R,ugm-3
05-01-2018,08:00,19.04302,R,ugm-3,40.81888,R,ugm-3,70.01777,R,ugm-3,,,,1.00,R,ugm-3,0.70,R,ugm-3
05-01-2018,09:00,36.71110,R,ugm-3,57.02503,R,ugm-3,113.31459,R,ugm-3,,,,2.10,R,ugm-3,3.70,R,ugm-3
05-01-2018,10:00,29.01139,R,ugm-3,49.92683,R,ugm-3,94.41034,R,ugm-3,,,,1.40,R,ugm-3,1.60,R,ugm-3
05-01-2018,11:00,21.96479,R,ugm-3,45.48612,R,ugm-3,79.16499,R,ugm-3,,,,1.00,R,ugm-3,0.60,R,ugm-3
05-01-2018,12:00,21.31169,R,ugm-3,46.87559,R,ugm-3,79.55305,R,ugm-3,,,,1.10,R,ugm-3,0.40,R,ugm-3
05-01-2018,13:00,12.95888,R,ugm-3,34.79153,R,ugm-3,54.66154,R,ugm-3,,,,1.00,R,ugm-3,0.90,R,ugm-3
05-01-2018,14:00,15.46816,R,ugm-3,42.47506,R,ugm-3,66.19257,R,ugm-3,,,,1.20,R,ugm-3,1.20,R,ugm-3
05-01-2018,15:00,24.09595,R,ugm-3,53.80485,R,ugm-3,90.75146,R,ugm-3,,,,1.40,R,ugm-3,0.50,R,ugm-3
05-01-2018,16:00,25.19591,R,ugm-3,55.77715,R,ugm-3,94.41034,R,ugm-3,,,,1.60,R,ugm-3,0.40,R,ugm-3
05-01-2018,17:00,17.18684,R,ugm-3,44.10848,R,ugm-3,70.46127,R,ugm-3,,,,1.40,R,ugm-3,0.30,R,ugm-3
05-01-2018,18:00,12.54640,R,ugm-3,33.59456,R,ugm-3,52.83210,R,ugm-3,,,,0.90,R,ugm-3,0.30,R,ugm-3
05-01-2018,19:00,8.49030,R,ugm-3,25.45546,R,ugm-3,38.47374,R,ugm-3,,,,0.70,R,ugm-3,0.20,R,ugm-3
05-01-2018,20:00,6.56537,R,ugm-3,19.48151,R,ugm-3,29.54828,R,ugm-3,,,,0.50,R,ugm-3,0.20,R,ugm-3
05-01-2018,21:00,6.29039,R,ugm-3,19.07159,R,ugm-3,28.71671,R,ugm-3,,,,0.40,R,ugm-3,0.20,R,ugm-3
05-01-2018,22:00,5.22480,R,ugm-3,15.99326,R,ugm-3,24.00451,R,ugm-3,,,,0.30,R,ugm-3,0.20,R,ugm-3
05-01-2018,23:00,4.98419,R,ugm-3,13.59032,R,ugm-3,21.23263,R,ugm-3,,,,0.40,R,ugm-3,0.10,R,ugm-3
05-01-2018,24:00,5.19043,R,ugm-3,13.10777,R,ugm-3,21.06631,R,ugm-3,,,,0.20,R,ugm-3,0.10,R,ugm-3
06-01-2018,01:00,4.63122,R,ugm-3,11.46170,R,ugm-3,18.56281,R,ugm-3,,,,0.20,R,ugm-3,0.00,R,ugm-3
06-01-2018,02:00,4.17268,R,ugm-3,11.12941,R,ugm-3,17.52743,R,ugm-3,,,,0.10,R,ugm-3,0.10,R,ugm-3
06-01-2018,03:00,4.05805,R,ugm-3,10.36225,R,ugm-3,16.58450,R,ugm-3,,,,0.20,R,ugm-3,0.00,R,ugm-3
06-01-2018,04:00,3.64537,R,ugm-3,10.82862,R,ugm-3,16.41810,R,ugm-3,,,,0.10,R,ugm-3,0.10,R,ugm-3
06-01-2018,05:00,3.54220,R,ugm-3,10.82041,R,ugm-3,16.25170,R,ugm-3,,,,0.10,R,ugm-3,0.00,R,ugm-3
06-01-2018,06:00,3.30146,R,ugm-3,10.74579,R,ugm-3,15.80797,R,ugm-3,,,,0.10,R,ugm-3,-0.10,R,ugm-3
06-01-2018,07:00,3.06073,R,ugm-3,10.83758,R,ugm-3,15.53063,R,ugm-3,,,,0.10,R,ugm-3,-0.10,R,ugm-3
06-01-2018,08:00,3.64537,R,ugm-3,12.43715,R,ugm-3,18.02663,R,ugm-3,,,,0.10,R,ugm-3,0.00,R,ugm-3
06-01-2018,09:00,4.50512,R,ugm-3,14.83513,R,ugm-3,21.74289,R,ugm-3,,,,0.10,R,ugm-3,0.00,R,ugm-3
06-01-2018,10:00,4.67707,R,ugm-3,15.51441,R,ugm-3,22.68582,R,ugm-3,,,,0.10,R,ugm-3,0.10,R,ugm-3
06-01-2018,11:00,5.57122,R,ugm-3,17.02767,R,ugm-3,25.57008,R,ugm-3,,,,0.20,R,ugm-3,0.00,R,ugm-3
06-01-2018,12:00,6.91244,R,ugm-3,21.68261,R,ugm-3,32.28153,R,ugm-3,,,,0.20,R,ugm-3,0.10,R,ugm-3
06-01-2018,13:00,6.49976,R,ugm-3,21.09512,R,ugm-3,31.06127,R,ugm-3,,,,0.30,R,ugm-3,0.00,R,ugm-3
06-01-2018,14:00,6.94683,R,ugm-3,22.96108,R,ugm-3,33.61273,R,ugm-3,,,,0.30,R,ugm-3,0.10,R,ugm-3
06-01-2018,15:00,6.74049,R,ugm-3,23.72120,R,ugm-3,34.05646,R,ugm-3,,,,0.40,R,ugm-3,0.00,R,ugm-3
06-01-2018,16:00,6.91244,R,ugm-3,27.89486,R,ugm-3,38.49379,R,ugm-3,,,,0.50,R,ugm-3,0.20,R,ugm-3
06-01-2018,17:00,9.31976,R,ugm-3,41.67566,R,ugm-3,55.96575,R,ugm-3,,,,0.70,R,ugm-3,0.20,R,ugm-3
06-01-2018,18:00,26.92756,R,ugm-3,77.52101,R,ugm-3,118.80935,R,ugm-3,,,,2.00,R,ugm-3,0.80,R,ugm-3
06-01-2018,19:00,17.05756,R,ugm-3,56.43514,R,ugm-3,82.58970,R,ugm-3,,,,2.20,R,ugm-3,1.10,R,ugm-3
06-01-2018,20:00,18.91463,R,ugm-3,58.63512,R,ugm-3,87.63715,R,ugm-3,,,,4.10,R,ugm-3,6.80,R,ugm-3
06-01-2018,21:00,41.88731,R,ugm-3,77.32433,R,ugm-3,141.55064,R,ugm-3,,,,14.10,R,ugm-3,12.30,R,ugm-3
06-01-2018,22:00,44.22584,R,ugm-3,70.29970,R,ugm-3,138.11171,R,ugm-3,,,,10.50,R,ugm-3,11.20,R,ugm-3
06-01-2018,23:00,44.56975,R,ugm-3,72.54572,R,ugm-3,140.88504,R,ugm-3,,,,7.20,R,ugm-3,7.50,R,ugm-3
06-01-2018,24:00,26.41170,R,ugm-3,54.29496,R,ugm-3,94.79234,R,ugm-3,,,,4.80,R,ugm-3,3.60,R,ugm-3
07-01-2018,01:00,6.26204,R,ugm-3,29.41164,R,ugm-3,39.01329,R,ugm-3,,,,1.10,R,ugm-3,0.60,R,ugm-3
07-01-2018,02:00,5.09221,R,ugm-3,26.15527,R,ugm-3,33.96321,R,ugm-3,,,,0.60,R,ugm-3,0.60,R,ugm-3
07-01-2018,03:00,6.84695,R,ugm-3,27.01641,R,ugm-3,37.51492,R,ugm-3,,,,0.80,R,ugm-3,0.50,R,ugm-3
07-01-2018,04:00,8.53288,R,ugm-3,22.76648,R,ugm-3,35.85005,R,ugm-3,,,,0.60,R,ugm-3,0.30,R,ugm-3
07-01-2018,05:00,6.98458,R,ugm-3,18.86953,R,ugm-3,29.57907,R,ugm-3,,,,0.50,R,ugm-3,0.20,R,ugm-3
07-01-2018,06:00,12.69611,R,ugm-3,28.81394,R,ugm-3,48.28103,R,ugm-3,,,,0.50,R,ugm-3,0.10,R,ugm-3
07-01-2018,07:00,13.93475,R,ugm-3,25.69381,R,ugm-3,47.06013,R,ugm-3,,,,0.70,R,ugm-3,0.10,R,ugm-3
07-01-2018,08:00,16.96255,R,ugm-3,28.37665,R,ugm-3,54.38553,R,ugm-3,,,,0.50,R,ugm-3,0.20,R,ugm-3
07-01-2018,09:00,31.20696,R,ugm-3,36.94703,R,ugm-3,84.79703,R,ugm-3,,,,0.90,R,ugm-3,0.40,R,ugm-3
07-01-2018,10:00,35.54221,R,ugm-3,36.23774,R,ugm-3,90.73504,R,ugm-3,,,,1.00,R,ugm-3,1.00,R,ugm-3
07-01-2018,11:00,43.49018,R,ugm-3,41.31011,R,ugm-3,107.99412,R,ugm-3,,,,1.80,R,ugm-3,1.50,R,ugm-3
07-01-2018,12:00,43.21493,R,ugm-3,42.28711,R,ugm-3,108.54908,R,ugm-3,,,,4.70,R,ugm-3,4.60,R,ugm-3
07-01-2018,13:00,21.64187,R,ugm-3,36.46304,R,ugm-3,69.64677,R,ugm-3,,,,1.90,R,ugm-3,0.80,R,ugm-3
07-01-2018,14:00,12.62729,R,ugm-3,37.46575,R,ugm-3,56.82733,R,ugm-3,,,,0.80,R,ugm-3,0.20,R,ugm-3
07-01-2018,15:00,11.35424,R,ugm-3,35.47756,R,ugm-3,52.88715,R,ugm-3,,,,0.80,R,ugm-3,0.30,R,ugm-3
07-01-2018,16:00,17.44424,R,ugm-3,48.06039,R,ugm-3,74.80785,R,ugm-3,,,,1.20,R,ugm-3,0.40,R,ugm-3
07-01-2018,17:00,27.07814,R,ugm-3,67.41831,R,ugm-3,108.93755,R,ugm-3,,,,1.40,R,ugm-3,0.80,R,ugm-3
07-01-2018,18:00,43.04289,R,ugm-3,73.29537,R,ugm-3,139.29355,R,ugm-3,,,,2.50,R,ugm-3,0.90,R,ugm-3
07-01-2018,19:00,25.18577,R,ugm-3,62.32856,R,ugm-3,100.94620,R,ugm-3,,,,3.00,R,ugm-3,0.60,R,ugm-3
07-01-2018,20:00,20.50645,R,ugm-3,53.96470,R,ugm-3,85.40748,R,ugm-3,,,,1.70,R,ugm-3,1.10,R,ugm-3
07-01-2018,21:00,11.42305,R,ugm-3,42.80844,R,ugm-3,60.32354,R,ugm-3,,,,1.70,R,ugm-3,0.90,R,ugm-3
07-01-2018,22:00,7.77593,R,ugm-3,34.69324,R,ugm-3,46.61617,R,ugm-3,,,,1.80,R,ugm-3,1.70,R,ugm-3
07-01-2018,23:00,12.83373,R,ugm-3,40.64543,R,ugm-3,60.32354,R,ugm-3,,,,1.30,R,ugm-3,1.20,R,ugm-3
07-01-2018,24:00,10.35644,R,ugm-3,36.45254,R,ugm-3,52.33220,R,ugm-3,,,,0.80,R,ugm-3,0.40,R,ugm-3
08-01-2018,01:00,7.02236,R,ugm-3,24.82362,R,ugm-3,35.59109,R,ugm-3,,,,0.70,R,ugm-3,0.30,R,ugm-3
08-01-2018,02:00,5.00286,R,ugm-3,17.35202,R,ugm-3,25.02296,R,ugm-3,,,,1.30,R,ugm-3,0.70,R,ugm-3
08-01-2018,03:00,2.89156,R,ugm-3,13.00097,R,ugm-3,17.43464,R,ugm-3,,,,0.20,R,ugm-3,0.10,R,ugm-3
08-01-2018,04:00,3.44234,R,ugm-3,16.15422,R,ugm-3,21.43239,R,ugm-3,,,,0.10,R,ugm-3,0.20,R,ugm-3
08-01-2018,05:00,6.85025,R,ugm-3,24.58781,R,ugm-3,35.09137,R,ugm-3,,,,0.20,R,ugm-3,0.10,R,ugm-3
08-01-2018,06:00,13.21856,R,ugm-3,33.36832,R,ugm-3,53.63650,R,ugm-3,,,,0.30,R,ugm-3,0.20,R,ugm-3
08-01-2018,07:00,53.18406,R,ugm-3,57.42963,R,ugm-3,138.97739,R,ugm-3,,,,0.70,R,ugm-3,0.20,R,ugm-3
08-01-2018,08:00,115.80012,R,ugm-3,104.61691,R,ugm-3,282.17462,R,ugm-3,,,,3.00,R,ugm-3,0.50,R,ugm-3
08-01-2018,09:00,165.43858,R,ugm-3,119.84318,R,ugm-3,373.51213,R,ugm-3,,,,3.80,R,ugm-3,0.90,R,ugm-3
08-01-2018,10:00,133.11506,R,ugm-3,107.60665,R,ugm-3,311.71356,R,ugm-3,,,,3.40,R,ugm-3,0.50,R,ugm-3
08-01-2018,11:00,22.03094,R,ugm-3,41.62173,R,ugm-3,75.40203,R,ugm-3,,,,0.80,R,ugm-3,0.20,R,ugm-3
08-01-2018,12:00,10.39585,R,ugm-3,31.31112,R,ugm-3,47.25120,R,ugm-3,,,,0.40,R,ugm-3,0.10,R,ugm-3
08-01-2018,13:00,10.15489,R,ugm-3,28.62676,R,ugm-3,44.19736,R,ugm-3,,,,0.50,R,ugm-3,0.20,R,ugm-3
08-01-2018,14:00,8.84680,R,ugm-3,28.18939,R,ugm-3,41.75429,R,ugm-3,,,,0.50,R,ugm-3,0.20,R,ugm-3
08-01-2018,15:00,10.36143,R,ugm-3,32.58544,R,ugm-3,48.47274,R,ugm-3,,,,0.50,R,ugm-3,0.10,R,ugm-3
08-01-2018,16:00,14.97415,R,ugm-3,45.83459,R,ugm-3,68.79464,R,ugm-3,,,,0.90,R,ugm-3,0.30,R,ugm-3
08-01-2018,17:00,13.32183,R,ugm-3,41.37205,R,ugm-3,61.79857,R,ugm-3,,,,1.00,R,ugm-3,0.20,R,ugm-3
08-01-2018,18:00,10.12046,R,ugm-3,36.73057,R,ugm-3,52.24839,R,ugm-3,,,,0.80,R,ugm-3,0.30,R,ugm-3
08-01-2018,19:00,9.15661,R,ugm-3,39.92971,R,ugm-3,53.96965,R,ugm-3,,,,0.90,R,ugm-3,0.50,R,ugm-3
08-01-2018,20:00,7.74525,R,ugm-3,35.43084,R,ugm-3,47.30672,R,ugm-3,,,,1.20,R,ugm-3,0.90,R,ugm-3
08-01-2018,21:00,6.02409,R,ugm-3,28.29764,R,ugm-3,37.53444,R,ugm-3,,,,0.70,R,ugm-3,0.40,R,ugm-3
08-01-2018,22:00,4.47503,R,ugm-3,20.40082,R,ugm-3,27.26244,R,ugm-3,,,,0.60,R,ugm-3,0.20,R,ugm-3
08-01-2018,23:00,3.68330,R,ugm-3,18.61649,R,ugm-3,24.26413,R,ugm-3,,,,0.50,R,ugm-3,0.20,R,ugm-3
08-01-2018,24:00,4.02753,R,ugm-3,17.86657,R,ugm-3,24.04203,R,ugm-3,,,,0.50,R,ugm-3,0.20,R,ugm-3
09-01-2018,01:00,4.09835,R,ugm-3,15.54837,R,ugm-3,21.83241,R,ugm-3,,,,0.30,R,ugm-3,0.20,R,ugm-3
09-01-2018,02:00,3.85727,R,ugm-3,15.86246,R,ugm-3,21.77686,R,ugm-3,,,,0.40,R,ugm-3,0.20,R,ugm-3
09-01-2018,03:00,4.27055,R,ugm-3,16.11763,R,ugm-3,22.66571,R,ugm-3,,,,0.40,R,ugm-3,0.20,R,ugm-3
09-01-2018,04:00,4.13279,R,ugm-3,15.38445,R,ugm-3,21.72131,R,ugm-3,,,,0.40,R,ugm-3,0.20,R,ugm-3
09-01-2018,05:00,4.64939,R,ugm-3,15.48120,R,ugm-3,22.61016,R,ugm-3,,,,0.40,R,ugm-3,0.20,R,ugm-3
09-01-2018,06:00,5.51038,R,ugm-3,16.04983,R,ugm-3,24.49897,R,ugm-3,,,,0.40,R,ugm-3,0.10,R,ugm-3
09-01-2018,07:00,11.19297,R,ugm-3,22.00271,R,ugm-3,39.16502,R,ugm-3,,,,0.60,R,ugm-3,0.20,R,ugm-3
09-01-2018,08:00,16.15231,R,ugm-3,27.06462,R,ugm-3,51.83115,R,ugm-3,,,,0.80,R,ugm-3,0.30,R,ugm-3
09-01-2018,09:00,19.94070,R,ugm-3,31.36652,R,ugm-3,61.94183,R,ugm-3,,,,0.80,R,ugm-3,0.30,R,ugm-3
09-01-2018,10:00,17.25439,R,ugm-3,29.48573,R,ugm-3,55.94208,R,ugm-3,,,,0.80,R,ugm-3,0.20,R,ugm-3
09-01-2018,11:00,16.25563,R,ugm-3,27.18396,R,ugm-3,52.10891,R,ugm-3,,,,0.70,R,ugm-3,0.20,R,ugm-3
09-01-2018,12:00,14.56808,R,ugm-3,26.82719,R,ugm-3,49.16459,R,ugm-3,,,,0.70,R,ugm-3,0.30,R,ugm-3
09-01-2018,13:00,17.15107,R,ugm-3,28.47753,R,ugm-3,54.77547,R,ugm-3,,,,0.80,R,ugm-3,0.20,R,ugm-3
09-01-2018,14:00,17.28883,R,ugm-3,27.32190,R,ugm-3,53.83106,R,ugm-3,,,,0.60,R,ugm-3,0.20,R,ugm-3
09-01-2018,15:00,16.18675,R,ugm-3,28.51175,R,ugm-3,53.33108,R,ugm-3,,,,0.70,R,ugm-3,0.30,R,ugm-3
09-01-2018,16:00,15.39463,R,ugm-3,27.89305,R,ugm-3,51.49783,R,ugm-3,,,,0.70,R,ugm-3,0.20,R,ugm-3
09-01-2018,17:00,17.01331,R,ugm-3,28.68876,R,ugm-3,54.77547,R,ugm-3,,,,0.80,R,ugm-3,0.20,R,ugm-3
09-01-2018,18:00,13.70708,R,ugm-3,27.70294,R,ugm-3,48.72017,R,ugm-3,,,,0.90,R,ugm-3,0.20,R,ugm-3
09-01-2018,19:00,12.01952,R,ugm-3,26.40176,R,ugm-3,44.83144,R,ugm-3,,,,0.80,R,ugm-3,0.20,R,ugm-3
09-01-2018,20:00,8.95437,R,ugm-3,26.10181,R,ugm-3,39.83165,R,ugm-3,,,,0.70,R,ugm-3,0.30,R,ugm-3
09-01-2018,21:00,7.43902,R,ugm-3,23.64774,R,ugm-3,35.05408,R,ugm-3,,,,0.60,R,ugm-3,0.30,R,ugm-3
09-01-2018,22:00,6.37138,R,ugm-3,21.11827,R,ugm-3,30.88759,R,ugm-3,,,,0.50,R,ugm-3,0.20,R,ugm-3
09-01-2018,23:00,7.02574,R,ugm-3,19.33719,R,ugm-3,30.10984,R,ugm-3,,,,0.60,R,ugm-3,0.30,R,ugm-3
09-01-2018,24:00,5.37262,R,ugm-3,15.03889,R,ugm-3,23.27680,R,ugm-3,,,,0.90,R,ugm-3,0.50,R,ugm-3
10-01-2018,01:00,6.02988,R,ugm-3,16.87790,R,ugm-3,26.12359,R,ugm-3,,,,0.50,R,ugm-3,0.40,R,ugm-3
10-01-2018,02:00,4.41043,R,ugm-3,13.39522,R,ugm-3,20.15778,R,ugm-3,,,,0.40,R,ugm-3,0.20,R,ugm-3
10-01-2018,03:00,3.92804,R,ugm-3,12.54152,R,ugm-3,18.56442,R,ugm-3,,,,0.30,R,ugm-3,0.20,R,ugm-3
10-01-2018,04:00,3.79021,R,ugm-3,12.80843,R,ugm-3,18.62000,R,ugm-3,,,,0.30,R,ugm-3,0.20,R,ugm-3
10-01-2018,05:00,4.44488,R,ugm-3,15.58420,R,ugm-3,22.39959,R,ugm-3,,,,0.30,R,ugm-3,0.20,R,ugm-3
10-01-2018,06:00,5.58194,R,ugm-3,20.01034,R,ugm-3,28.56920,R,ugm-3,,,,0.30,R,ugm-3,0.20,R,ugm-3
10-01-2018,07:00,5.34075,R,ugm-3,19.93551,R,ugm-3,28.12454,R,ugm-3,,,,0.40,R,ugm-3,0.30,R,ugm-3
10-01-2018,08:00,15.16084,R,ugm-3,41.61802,R,ugm-3,64.86431,R,ugm-3,,,,0.90,R,ugm-3,0.20,R,ugm-3
10-01-2018,09:00,38.17774,R,ugm-3,61.90802,R,ugm-3,120.44641,R,ugm-3,,,,1.30,R,ugm-3,0.20,R,ugm-3
10-01-2018,10:00,32.14786,R,ugm-3,58.36982,R,ugm-3,107.66252,R,ugm-3,,,,1.60,R,ugm-3,0.90,R,ugm-3
10-01-2018,11:00,14.47171,R,ugm-3,33.67037,R,ugm-3,55.86001,R,ugm-3,,,,0.60,R,ugm-3,0.30,R,ugm-3
10-01-2018,12:00,12.74889,R,ugm-3,29.80889,R,ugm-3,49.35690,R,ugm-3,,,,0.80,R,ugm-3,0.60,R,ugm-3
10-01-2018,13:00,13.19682,R,ugm-3,37.40380,R,ugm-3,57.63863,R,ugm-3,,,,1.60,R,ugm-3,2.70,R,ugm-3
10-01-2018,14:00,10.50922,R,ugm-3,33.07625,R,ugm-3,49.19016,R,ugm-3,,,,1.30,R,ugm-3,1.10,R,ugm-3
10-01-2018,15:00,17.84844,R,ugm-3,45.27858,R,ugm-3,72.64580,R,ugm-3,,,,2.90,R,ugm-3,1.20,R,ugm-3
10-01-2018,16:00,41.45110,R,ugm-3,56.38869,R,ugm-3,119.94617,R,ugm-3,,,,2.70,R,ugm-3,1.00,R,ugm-3
10-01-2018,17:00,66.22529,R,ugm-3,60.97803,R,ugm-3,162.52205,R,ugm-3,,,,4.30,R,ugm-3,2.20,R,ugm-3
10-01-2018,18:00,120.32191,R,ugm-3,77.96764,R,ugm-3,262.45867,R,ugm-3,,,,16.30,R,ugm-3,9.80,R,ugm-3
10-01-2018,19:00,132.65732,R,ugm-3,84.67696,R,ugm-3,288.08201,R,ugm-3,,,,10.80,R,ugm-3,5.70,R,ugm-3
10-01-2018,20:00,119.97735,R,ugm-3,82.99812,R,ugm-3,266.96082,R,ugm-3,,,,7.30,R,ugm-3,3.30,R,ugm-3
10-01-2018,21:00,107.22846,R,ugm-3,68.80780,R,ugm-3,233.22248,R,ugm-3,,,,13.30,R,ugm-3,11.90,R,ugm-3
10-01-2018,22:00,85.10742,R,ugm-3,62.48482,R,ugm-3,192.98104,R,ugm-3,,,,11.60,R,ugm-3,8.40,R,ugm-3
10-01-2018,23:00,93.85936,R,ugm-3,59.18131,R,ugm-3,203.09699,R,ugm-3,,,,16.60,R,ugm-3,9.80,R,ugm-3
10-01-2018,24:00,91.99871,R,ugm-3,56.75396,R,ugm-3,197.81669,R,ugm-3,,,,15.70,R,ugm-3,8.90,R,ugm-3
11-01-2018,01:00,67.01551,R,ugm-3,42.77827,R,ugm-3,145.53394,R,ugm-3,,,,10.40,R,ugm-3,5.90,R,ugm-3
11-01-2018,02:00,59.06374,R,ugm-3,35.34013,R,ugm-3,125.90327,R,ugm-3,,,,9.00,R,ugm-3,5.60,R,ugm-3
11-01-2018,03:00,50.70978,R,ugm-3,31.91095,R,ugm-3,109.66486,R,ugm-3,,,,7.70,R,ugm-3,5.60,R,ugm-3
11-01-2018,04:00,53.60551,R,ugm-3,32.42026,R,ugm-3,114.61424,R,ugm-3,,,,7.30,R,ugm-3,5.00,R,ugm-3
11-01-2018,05:00,38.26503,R,ugm-3,30.58340,R,ugm-3,89.25563,R,ugm-3,,,,4.70,R,ugm-3,3.40,R,ugm-3